date,time,humid
2023-11-01,00:00,90.86
2023-11-01,01:00,92.21
2023-11-01,02:00,92.99
2023-11-01,03:00,93.12
2023-11-01,04:00,92.96
2023-11-01,05:00,93.08
2023-11-01,06:00,92.67
2023-11-01,07:00,91.88
2023-11-01,08:00,76.43
2023-11-01,09:00,73.84
2023-11-01,10:00,71.58
2023-11-01,11:00,63.77
2023-11-01,12:00,57.14
2023-11-01,13:00,58.4
2023-11-01,14:00,59.61
2023-11-01,15:00,59.52
2023-11-01,16:00,66.37
2023-11-01,17:00,69.3
2023-11-01,18:00,72.89
2023-11-01,19:00,76.17
2023-11-01,20:00,78.11
2023-11-01,21:00,92.07
2023-11-01,22:00,92.45
2023-11-01,23:00,92.52
2023-11-02,00:00,91.5
2023-11-02,01:00,89.76
2023-11-02,02:00,88.08
2023-11-02,03:00,88.33
2023-11-02,04:00,87.39
2023-11-02,05:00,87.17
2023-11-02,06:00,86.54
2023-11-02,07:00,82.02
2023-11-02,08:00,75.91
2023-11-02,09:00,72.69
2023-11-02,10:00,64.65
2023-11-02,11:00,61.36
2023-11-02,12:00,60.44
2023-11-02,13:00,67.66
2023-11-02,14:00,60.92
2023-11-02,15:00,59.99
2023-11-02,16:00,58.96
2023-11-02,17:00,70.96
2023-11-02,18:00,77.59
2023-11-02,19:00,85.58
2023-11-02,20:00,89.41
2023-11-02,21:00,88.88
2023-11-02,22:00,91
2023-11-02,23:00,92.17
2023-11-03,00:00,91.45
2023-11-03,01:00,90.33
2023-11-03,02:00,90.11
2023-11-03,03:00,92.9
2023-11-03,04:00,92.46
2023-11-03,05:00,91.96
2023-11-03,06:00,93.92
2023-11-03,07:00,88.35
2023-11-03,08:00,62.1
2023-11-03,09:00,62.97
2023-11-03,10:00,65.36
2023-11-03,11:00,58.12
2023-11-03,12:00,53.86
2023-11-03,13:00,52.35
2023-11-03,14:00,52.05
2023-11-03,15:00,50.68
2023-11-03,16:00,51.83
2023-11-03,17:00,61.05
2023-11-03,18:00,68.58
2023-11-03,19:00,71.59
2023-11-03,20:00,74.11
2023-11-03,21:00,82.94
2023-11-03,22:00,83.5
2023-11-03,23:00,85.6
2023-11-04,00:00,89.72
2023-11-04,01:00,90.5
2023-11-04,02:00,89
2023-11-04,03:00,92.07
2023-11-04,04:00,94.16
2023-11-04,05:00,94.84
2023-11-04,06:00,94.86
2023-11-04,07:00,93.33
2023-11-04,08:00,80.64
2023-11-04,09:00,81.07
2023-11-04,10:00,71.9
2023-11-04,11:00,65
2023-11-04,12:00,58.92
2023-11-04,13:00,55.97
2023-11-04,14:00,58
2023-11-04,15:00,54.01
2023-11-04,16:00,58.05
2023-11-04,17:00,72.45
2023-11-04,18:00,80.9
2023-11-04,19:00,84.89
2023-11-04,20:00,85.46
2023-11-04,21:00,87.04
2023-11-04,22:00,89.64
2023-11-04,23:00,91.69
2023-11-05,00:00,90.24
2023-11-05,01:00,91.8
2023-11-05,02:00,94.2
2023-11-05,03:00,94.29
2023-11-05,04:00,96.43
2023-11-05,05:00,96.01
2023-11-05,06:00,97.21
2023-11-05,07:00,93.06
2023-11-05,08:00,73.04
2023-11-05,09:00,69.21
2023-11-05,10:00,68.24
2023-11-05,11:00,63.61
2023-11-05,12:00,51.46
2023-11-05,13:00,47.27
2023-11-05,14:00,52.88
2023-11-05,15:00,60.85
2023-11-05,16:00,65.86
2023-11-05,17:00,72.74
2023-11-05,18:00,80.07
2023-11-05,19:00,81.9
2023-11-05,20:00,84.65
2023-11-05,21:00,82.43
2023-11-05,22:00,82.01
2023-11-05,23:00,87.97
2023-11-06,00:00,88.91
2023-11-06,01:00,90.97
2023-11-06,02:00,89.38
2023-11-06,03:00,91.15
2023-11-06,04:00,90.38
2023-11-06,05:00,93.12
2023-11-06,06:00,94.43
2023-11-06,07:00,84.66
2023-11-06,08:00,63.28
2023-11-06,09:00,67.81
2023-11-06,10:00,66.13
2023-11-06,11:00,59.52
2023-11-06,12:00,51.63
2023-11-06,13:00,50.57
2023-11-06,14:00,50.3
2023-11-06,15:00,49.73
2023-11-06,16:00,51.02
2023-11-06,17:00,58.24
2023-11-06,18:00,66.55
2023-11-06,19:00,77.63
2023-11-06,20:00,80.9
2023-11-06,21:00,78.92
2023-11-06,22:00,81.76
2023-11-06,23:00,82.96
2023-11-07,00:00,85.06
2023-11-07,01:00,88.27
2023-11-07,02:00,91.87
2023-11-07,03:00,96.56
2023-11-07,04:00,96.53
2023-11-07,05:00,97.07
2023-11-07,06:00,96.59
2023-11-07,07:00,95.11
2023-11-07,08:00,86.92
2023-11-07,09:00,75.32
2023-11-07,10:00,73.89
2023-11-07,11:00,60.24
2023-11-07,12:00,60.72
2023-11-07,13:00,58.32
2023-11-07,14:00,61.53
2023-11-07,15:00,60.28
2023-11-07,16:00,66.04
2023-11-07,17:00,70.03
2023-11-07,18:00,79.27
2023-11-07,19:00,82.87
2023-11-07,20:00,86.02
2023-11-07,21:00,87.08
2023-11-07,22:00,83.31
2023-11-07,23:00,88.19
2023-11-08,00:00,88.67
2023-11-08,01:00,90.38
2023-11-08,02:00,92.88
2023-11-08,03:00,94.71
2023-11-08,04:00,95.96
2023-11-08,05:00,95.59
2023-11-08,06:00,93.83
2023-11-08,07:00,91.53
2023-11-08,08:00,68.16
2023-11-08,09:00,68
2023-11-08,10:00,70.44
2023-11-08,11:00,62.24
2023-11-08,12:00,55.41
2023-11-08,13:00,54.61
2023-11-08,14:00,49.44
2023-11-08,15:00,50.45
2023-11-08,16:00,49.71
2023-11-08,17:00,59.08
2023-11-08,18:00,69.47
2023-11-08,19:00,76.62
2023-11-08,20:00,73.57
2023-11-08,21:00,79.34
2023-11-08,22:00,88.45
2023-11-08,23:00,98.41
2023-11-09,00:00,99.11
2023-11-09,01:00,98.73
2023-11-09,02:00,97.17
2023-11-09,03:00,94.94
2023-11-09,04:00,94.85
2023-11-09,05:00,94.88
2023-11-09,06:00,94.57
2023-11-09,07:00,91.53
2023-11-09,08:00,80.72
2023-11-09,09:00,76.6
2023-11-09,10:00,73.28
2023-11-09,11:00,66.4
2023-11-09,12:00,65.96
2023-11-09,13:00,64.24
2023-11-09,14:00,66.56
2023-11-09,15:00,89.32
2023-11-09,16:00,98.98
2023-11-09,17:00,99.38
2023-11-09,18:00,99.46
2023-11-09,19:00,99.62
2023-11-09,20:00,99.75
2023-11-09,21:00,99.8
2023-11-09,22:00,99.77
2023-11-09,23:00,99.8
2023-11-10,00:00,99.81
2023-11-10,01:00,99.78
2023-11-10,02:00,99.82
2023-11-10,03:00,99.84
2023-11-10,04:00,99.85
2023-11-10,05:00,99.91
2023-11-10,06:00,99.67
2023-11-10,07:00,99.29
2023-11-10,08:00,91.03
2023-11-10,09:00,84.55
2023-11-10,10:00,80.98
2023-11-10,11:00,69.33
2023-11-10,12:00,61.7
2023-11-10,13:00,59.76
2023-11-10,14:00,53.1
2023-11-10,15:00,52.32
2023-11-10,16:00,65.14
2023-11-10,17:00,75.34
2023-11-10,18:00,92.62
2023-11-10,19:00,95
2023-11-10,20:00,95.15
2023-11-10,21:00,95.6
2023-11-10,22:00,93.93
2023-11-10,23:00,95.57
2023-11-11,00:00,95.44
2023-11-11,01:00,96.33
2023-11-11,02:00,96.79
2023-11-11,03:00,96.64
2023-11-11,04:00,98.44
2023-11-11,05:00,98.28
2023-11-11,06:00,96.8
2023-11-11,07:00,95.32
2023-11-11,08:00,83.21
2023-11-11,09:00,76.27
2023-11-11,10:00,75.3
2023-11-11,11:00,71.36
2023-11-11,12:00,63.2
2023-11-11,13:00,64
2023-11-11,14:00,56.12
2023-11-11,15:00,64.99
2023-11-11,16:00,69.25
2023-11-11,17:00,75.05
2023-11-11,18:00,82.82
2023-11-11,19:00,87.38
2023-11-11,20:00,86.52
2023-11-11,21:00,85.81
2023-11-11,22:00,88.74
2023-11-11,23:00,90.41
2023-11-12,00:00,93.2
2023-11-12,01:00,94.01
2023-11-12,02:00,91.96
2023-11-12,03:00,91.45
2023-11-12,04:00,94.61
2023-11-12,05:00,95.99
2023-11-12,06:00,96.16
2023-11-12,07:00,95.83
2023-11-12,08:00,91.01
2023-11-12,09:00,81.6
2023-11-12,10:00,80.12
2023-11-12,11:00,72.07
2023-11-12,12:00,70.06
2023-11-12,13:00,63.11
2023-11-12,14:00,62.09
2023-11-12,15:00,66.49
2023-11-12,16:00,75.76
2023-11-12,17:00,80.82
2023-11-12,18:00,82.61
2023-11-12,19:00,84.01
2023-11-12,20:00,89.92
2023-11-12,21:00,89.88
2023-11-12,22:00,90.78
2023-11-12,23:00,90.29
2023-11-13,00:00,91.09
2023-11-13,01:00,91.22
2023-11-13,02:00,88.55
2023-11-13,03:00,87.75
2023-11-13,04:00,89.65
2023-11-13,05:00,91.15
2023-11-13,06:00,90.99
2023-11-13,07:00,85.47
2023-11-13,08:00,75.67
2023-11-13,09:00,71.23
2023-11-13,10:00,73.72
2023-11-13,11:00,66.32
2023-11-13,12:00,66.23
2023-11-13,13:00,60.21
2023-11-13,14:00,59.6
2023-11-13,15:00,62.12
2023-11-13,16:00,69.67
2023-11-13,17:00,78.02
2023-11-13,18:00,82.6
2023-11-13,19:00,86.98
2023-11-13,20:00,87.9
2023-11-13,21:00,89.95
2023-11-13,22:00,90.14
2023-11-13,23:00,92.47
2023-11-14,00:00,92.4
2023-11-14,01:00,93.42
2023-11-14,02:00,92.66
2023-11-14,03:00,93.06
2023-11-14,04:00,92.83
2023-11-14,05:00,93.71
2023-11-14,06:00,94.87
2023-11-14,07:00,92.68
2023-11-14,08:00,72.32
2023-11-14,09:00,78.66
2023-11-14,10:00,72.97
2023-11-14,11:00,66.72
2023-11-14,12:00,64.29
2023-11-14,13:00,66.16
2023-11-14,14:00,-
2023-11-14,15:00,-
2023-11-14,16:00,-
2023-11-14,17:00,-
2023-11-14,18:00,-
2023-11-14,19:00,-
2023-11-14,20:00,88.64
2023-11-14,21:00,88.65
2023-11-14,22:00,89.86
2023-11-14,23:00,89.74
2023-11-15,00:00,89.28
2023-11-15,01:00,89.25
2023-11-15,02:00,-
2023-11-15,03:00,89.8
2023-11-15,04:00,-
2023-11-15,05:00,-
2023-11-15,06:00,-
2023-11-15,07:00,-
2023-11-15,08:00,83.13
2023-11-15,09:00,-
2023-11-15,10:00,73.27
2023-11-15,11:00,69.67
2023-11-15,12:00,65.69
2023-11-15,13:00,58
2023-11-15,14:00,58.84
2023-11-15,15:00,-
2023-11-15,16:00,59.66
2023-11-15,17:00,65.76
2023-11-15,18:00,-
2023-11-15,19:00,-
2023-11-15,20:00,-
2023-11-15,21:00,-
2023-11-15,22:00,81.15
2023-11-15,23:00,83.68
2023-11-16,00:00,-
2023-11-16,01:00,-
2023-11-16,02:00,-
2023-11-16,03:00,-
2023-11-16,04:00,-
2023-11-16,05:00,90.27
2023-11-16,06:00,91.09
2023-11-16,07:00,-
2023-11-16,08:00,84.45
2023-11-16,09:00,79.58
2023-11-16,10:00,-
2023-11-16,11:00,-
2023-11-16,12:00,-
2023-11-16,13:00,60.41
2023-11-16,14:00,61.92
2023-11-16,15:00,63.02
2023-11-16,16:00,-
2023-11-16,17:00,70.61
2023-11-16,18:00,77.02
2023-11-16,19:00,82.52
2023-11-16,20:00,84.54
2023-11-16,21:00,84.24
2023-11-16,22:00,-
2023-11-16,23:00,91.85
2023-11-17,00:00,84.53
2023-11-17,01:00,87.02
2023-11-17,02:00,-
2023-11-17,03:00,-
2023-11-17,04:00,-
2023-11-17,05:00,-
2023-11-17,06:00,-
2023-11-17,07:00,-
2023-11-17,08:00,71.39
2023-11-17,09:00,-
2023-11-17,10:00,67.85
2023-11-17,11:00,-
2023-11-17,12:00,-
2023-11-17,13:00,-
2023-11-17,14:00,63.95
2023-11-17,15:00,60.63
2023-11-17,16:00,60.14
2023-11-17,17:00,-
2023-11-17,18:00,67.7
2023-11-17,19:00,70.36
2023-11-17,20:00,73.19
2023-11-17,21:00,-
2023-11-17,22:00,-
2023-11-17,23:00,-
2023-11-18,00:00,-
2023-11-18,01:00,75.41
2023-11-18,02:00,76.55
2023-11-18,03:00,79.63
2023-11-18,04:00,-
2023-11-18,05:00,83.5
2023-11-18,06:00,86.44
2023-11-18,07:00,-
2023-11-18,08:00,-
2023-11-18,09:00,-
2023-11-18,10:00,-
2023-11-18,11:00,-
2023-11-18,12:00,44.75
2023-11-18,13:00,-
2023-11-18,14:00,-
2023-11-18,15:00,-
2023-11-18,16:00,45.58
2023-11-18,17:00,-
2023-11-18,18:00,56.78
2023-11-18,19:00,64.44
2023-11-18,20:00,66.8
2023-11-18,21:00,66.7
2023-11-18,22:00,-
2023-11-18,23:00,67.54
2023-11-19,00:00,-
2023-11-19,01:00,69.56
2023-11-19,02:00,-
2023-11-19,03:00,-
2023-11-19,04:00,75.48
2023-11-19,05:00,-
2023-11-19,06:00,76.59
2023-11-19,07:00,76.46
2023-11-19,08:00,72.69
2023-11-19,09:00,66.1
2023-11-19,10:00,-
2023-11-19,11:00,56.19
2023-11-19,12:00,-
2023-11-19,13:00,50.2
2023-11-19,14:00,-
2023-11-19,15:00,49.6
2023-11-19,16:00,-
2023-11-19,17:00,-
2023-11-19,18:00,-
2023-11-19,19:00,68.16
2023-11-19,20:00,-
2023-11-19,21:00,-
2023-11-19,22:00,74.76
2023-11-19,23:00,-
2023-11-20,00:00,72.54
2023-11-20,01:00,75.33
2023-11-20,02:00,-
2023-11-20,03:00,75.65
2023-11-20,04:00,77.27
2023-11-20,05:00,79.03
2023-11-20,06:00,-
2023-11-20,07:00,-
2023-11-20,08:00,53.24
2023-11-20,09:00,-
2023-11-20,10:00,-
2023-11-20,11:00,-
2023-11-20,12:00,50.51
2023-11-20,13:00,-
2023-11-20,14:00,49.13
2023-11-20,15:00,48.76
2023-11-20,16:00,-
2023-11-20,17:00,57.33
2023-11-20,18:00,65.44
2023-11-20,19:00,71.62
2023-11-20,20:00,-
2023-11-20,21:00,75.67
2023-11-20,22:00,-
2023-11-20,23:00,-
2023-11-21,00:00,-
2023-11-21,01:00,75.71
2023-11-21,02:00,75.96
2023-11-21,03:00,75.58
2023-11-21,04:00,76.55
2023-11-21,05:00,-
2023-11-21,06:00,83.29
2023-11-21,07:00,-
2023-11-21,08:00,57.19
2023-11-21,09:00,-
2023-11-21,10:00,-
2023-11-21,11:00,-
2023-11-21,12:00,-
2023-11-21,13:00,-
2023-11-21,14:00,48.93
2023-11-21,15:00,49
2023-11-21,16:00,-
2023-11-21,17:00,56.56
2023-11-21,18:00,61.82
2023-11-21,19:00,-
2023-11-21,20:00,76.43
2023-11-21,21:00,81.58
2023-11-21,22:00,-
2023-11-21,23:00,-
2023-11-22,00:00,-
2023-11-22,01:00,86.78
2023-11-22,02:00,87.06
2023-11-22,03:00,86.9
2023-11-22,04:00,85.15
2023-11-22,05:00,85.22
2023-11-22,06:00,-
2023-11-22,07:00,-
2023-11-22,08:00,62.91
2023-11-22,09:00,65.81
2023-11-22,10:00,65.52
2023-11-22,11:00,-
2023-11-22,12:00,49.07
2023-11-22,13:00,-
2023-11-22,14:00,49.61
2023-11-22,15:00,-
2023-11-22,16:00,-
2023-11-22,17:00,-
2023-11-22,18:00,72.65
2023-11-22,19:00,80.48
2023-11-22,20:00,76.77
2023-11-22,21:00,84.42
2023-11-22,22:00,-
2023-11-22,23:00,84.25
2023-11-23,00:00,82.24
2023-11-23,01:00,80.39
2023-11-23,02:00,83.9
2023-11-23,03:00,81.69
2023-11-23,04:00,-
2023-11-23,05:00,82.39
2023-11-23,06:00,-
2023-11-23,07:00,78.96
2023-11-23,08:00,-
2023-11-23,09:00,63.28
2023-11-23,10:00,-
2023-11-23,11:00,57.09
2023-11-23,12:00,55.24
2023-11-23,13:00,-
2023-11-23,14:00,-
2023-11-23,15:00,43.25
2023-11-23,16:00,-
2023-11-23,17:00,-
2023-11-23,18:00,69.32
2023-11-23,19:00,80.52
2023-11-23,20:00,78.28
2023-11-23,21:00,86.2
2023-11-23,22:00,-
2023-11-23,23:00,-
2023-11-24,00:00,82.3
2023-11-24,01:00,81.41
2023-11-24,02:00,81.84
2023-11-24,03:00,-
2023-11-24,04:00,78.85
2023-11-24,05:00,-
2023-11-24,06:00,77.71
2023-11-24,07:00,76.03
2023-11-24,08:00,62.86
2023-11-24,09:00,-
2023-11-24,10:00,66.65
2023-11-24,11:00,-
2023-11-24,12:00,54.25
2023-11-24,13:00,54.53
2023-11-24,14:00,54.37
2023-11-24,15:00,54.51
2023-11-24,16:00,61.29
2023-11-24,17:00,68.86
2023-11-24,18:00,73.42
2023-11-24,19:00,81.89
2023-11-24,20:00,83.45
2023-11-24,21:00,88.46
2023-11-24,22:00,84.57
2023-11-24,23:00,88.33
2023-11-25,00:00,87.1
2023-11-25,01:00,85.85
2023-11-25,02:00,85.86
2023-11-25,03:00,87.42
2023-11-25,04:00,86.23
2023-11-25,05:00,87.26
2023-11-25,06:00,88.22
2023-11-25,07:00,82.93
2023-11-25,08:00,64.82
2023-11-25,09:00,66.37
2023-11-25,10:00,64.76
2023-11-25,11:00,53.58
2023-11-25,12:00,51.75
2023-11-25,13:00,47.46
2023-11-25,14:00,51.23
2023-11-25,15:00,48.89
2023-11-25,16:00,50.26
2023-11-25,17:00,56.87
2023-11-25,18:00,62.43
2023-11-25,19:00,67.08
2023-11-25,20:00,69.47
2023-11-25,21:00,72.13
2023-11-25,22:00,72.24
2023-11-25,23:00,74.12
2023-11-26,00:00,75.53
2023-11-26,01:00,76.48
2023-11-26,02:00,75.36
2023-11-26,03:00,76.8
2023-11-26,04:00,77.48
2023-11-26,05:00,78.08
2023-11-26,06:00,78.13
2023-11-26,07:00,78.8
2023-11-26,08:00,74.39
2023-11-26,09:00,72.97
2023-11-26,10:00,67.7
2023-11-26,11:00,56.42
2023-11-26,12:00,51.09
2023-11-26,13:00,50.03
2023-11-26,14:00,52.25
2023-11-26,15:00,51.61
2023-11-26,16:00,59.31
2023-11-26,17:00,64.66
2023-11-26,18:00,69.84
2023-11-26,19:00,71.22
2023-11-26,20:00,72.11
2023-11-26,21:00,74.98
2023-11-26,22:00,77.45
2023-11-26,23:00,96.72
2023-11-27,00:00,95.96
2023-11-27,01:00,94.12
2023-11-27,02:00,94.76
2023-11-27,03:00,97.38
2023-11-27,04:00,99.11
2023-11-27,05:00,98.79
2023-11-27,06:00,98.68
2023-11-27,07:00,98.56
2023-11-27,08:00,87.81
2023-11-27,09:00,82.01
2023-11-27,10:00,74.93
2023-11-27,11:00,66.08
2023-11-27,12:00,67.3
2023-11-27,13:00,72.76
2023-11-27,14:00,71.32
2023-11-27,15:00,72.49
2023-11-27,16:00,72.97
2023-11-27,17:00,74.45
2023-11-27,18:00,81.64
2023-11-27,19:00,89.23
2023-11-27,20:00,89.28
2023-11-27,21:00,91.27
2023-11-27,22:00,92.86
2023-11-27,23:00,94.07
2023-11-28,00:00,93.77
2023-11-28,01:00,89.04
2023-11-28,02:00,87.54
2023-11-28,03:00,89.52
2023-11-28,04:00,91.21
2023-11-28,05:00,91.7
2023-11-28,06:00,93.18
2023-11-28,07:00,93.44
2023-11-28,08:00,82.24
2023-11-28,09:00,75.18
2023-11-28,10:00,68.2
2023-11-28,11:00,62.83
2023-11-28,12:00,59.99
2023-11-28,13:00,57.69
2023-11-28,14:00,52.37
2023-11-28,15:00,54.5
2023-11-28,16:00,54.8
2023-11-28,17:00,62.3
2023-11-28,18:00,67.06
2023-11-28,19:00,72.94
2023-11-28,20:00,76.07
2023-11-28,21:00,79.42
2023-11-28,22:00,79.19
2023-11-28,23:00,76.17
2023-11-29,00:00,78.13
2023-11-29,01:00,77.67
2023-11-29,02:00,78.94
2023-11-29,03:00,79.99
2023-11-29,04:00,80.45
2023-11-29,05:00,80.38
2023-11-29,06:00,79.37
2023-11-29,07:00,77.71
2023-11-29,08:00,75.08
2023-11-29,09:00,69.49
2023-11-29,10:00,64.78
2023-11-29,11:00,58.9
2023-11-29,12:00,59.26
2023-11-29,13:00,58.36
2023-11-29,14:00,57.61
2023-11-29,15:00,62.87
2023-11-29,16:00,65.61
2023-11-29,17:00,70.49
2023-11-29,18:00,75.87
2023-11-29,19:00,74.57
2023-11-29,20:00,75.32
2023-11-29,21:00,73.63
2023-11-29,22:00,74.1
2023-11-29,23:00,72.49
2023-11-30,00:00,75.54
2023-11-30,01:00,73.48
2023-11-30,02:00,76.88
2023-11-30,03:00,78.83
2023-11-30,04:00,78.15
2023-11-30,05:00,78.99
2023-11-30,06:00,79.36
2023-11-30,07:00,79.24
2023-11-30,08:00,76.24
2023-11-30,09:00,69.41
2023-11-30,10:00,65.15
2023-11-30,11:00,56.45
2023-11-30,12:00,51.57
2023-11-30,13:00,50.09
2023-11-30,14:00,47.82
2023-11-30,15:00,48.71
2023-11-30,16:00,51.89
2023-11-30,17:00,66.78
2023-11-30,18:00,76.67
2023-11-30,19:00,76.81
2023-11-30,20:00,79.39
2023-11-30,21:00,78.36
2023-11-30,22:00,79.54
2023-11-30,23:00,78.87
